Location: Il Ritiro
(43.4167°N, 13.1333°E)
Time: 17:05:32
(UTC+00:00)

Resurs 01 Rocket - Pass Details

Date: 05 July 2020
Orbit: 635 x 644 km, 98.0° (Epoch: 10 August)

Event Time Altitude Azimuth Distance (km) Brightness Sun altitude
Exits shadow 20:45:40 - 209° (SSW) 2,683 4.6 -15.8°
Reaches altitude 10° 20:47:48 10° 225° (SW) 2,023 4.1 -16.1°
Maximum altitude 20:50:47 18° 268° (W) 1,574 4.0 -16.4°
Drops below altitude 10° 20:53:48 10° 311° (NW) 2,031 5.4 -16.7°
Sets 20:56:39 0° 331° (NNW) 2,944 6.8 -16.9°
